Regional Weather Roundup
Issued by NWS

Home | Current Version | Previous Version | Text Only | Print | Product List | Glossary On
Versions: 1 2 3 4 5 6 7 8 9 10 11 12 13 14 15 16 17 18 19 20 21 22 23 24 25 26 27 28 29 30 31 32 33 34 35 36 37 38 39 40 41 42 43 44 45 46 47 48 49 50
000
ASUS43 KDMX 300608
RWRIA

WEATHER ROUNDUP FOR IOWA
NATIONAL WEATHER SERVICE DES MOINES IA
100 AM CDT SAT APR 30 2016

NOTE: "FAIR" INDICATES FEW OR NO CLOUDS BELOW 12,000 FEET WITH NO
SIGNIFICANT WEATHER AND/OR OBSTRUCTIONS TO VISIBILITY.

* - THESE STATIONS ARE NOT NWS STATIONS...THUS NOT UNDER NWS
QUALITY CONTROL.  THEY ALSO DO NOT REPORT WEATHER SUCH
AS PRECIPITATION OR FOG.

IAZ001>003-012>014-020>022-031>034-043>046-300700-
   NORTHWEST IOWA

CITY           SKY/WX    TMP DP  RH WIND       PRES   REMARKS
CARROLL *      CLOUDY    45  41  87 E17       29.97F
CHEROKEE *     CLOUDY    44  41  88 E9        30.01F
DENISON *      CLOUDY    45  41  87 E15G22    29.93F
LE MARS *      CLOUDY    46  39  76 E12G17    30.02F
ORANGE CITY *  CLOUDY    45  39  81 E12       30.02F
SHELDON *      CLOUDY    43  41  93 E9        30.02F
SIOUX CITY     CLOUDY    47  39  74 E14       29.98F
6HR MIN TEMP:  47; 6HR MAX TEMP:  48; 6HR PCP: TRACE;

SPENCER        CLOUDY    45  38  76 E13       30.04F
6HR MIN TEMP:  43; 6HR MAX TEMP:  48;

STORM LAKE *   CLOUDY    43  39  87 E18       30.00F
$$

IAZ055>058-069>071-079>083-090>094-300700-
   SOUTHWEST IOWA

CITY           SKY/WX    TMP DP  RH WIND       PRES   REMARKS
ATLANTIC *     CLOUDY    46  43  87 E14G23    29.91F
AUDUBON *      LGT RAIN  45  41  87 E17       29.96F
CLARINDA *       N/A    N/A N/A N/A MISG        N/A
COUNCIL BLFS * CLOUDY    45  43  93 E16G23    29.89F
CRESTON *      CLOUDY    46  43  87 E22G30    29.90F
HARLAN  *      CLOUDY    46  43  87 E17G28    29.95F
LAMONI         LGT RAIN  46  45  96 NE16G22   29.89F FOG
6HR MIN TEMP:  46; 6HR MAX TEMP:  47; 6HR PCP:  0.05;

RED OAK *      CLOUDY    48  45  87 E24G30    29.87F
SHENANDOAH *   CLOUDY    48  46  93 NE20G31   29.83F FOG
$$

IAZ047>049-059>061-072>074-084-300700-
   CENTRAL IOWA

CITY           SKY/WX    TMP DP  RH WIND       PRES   REMARKS
AMES           CLOUDY    46  41  82 E13       30.00F
6HR MIN TEMP:  46; 6HR MAX TEMP:  48;

ANKENY *       CLOUDY    46  45  93 E10G16    30.00S
BOONE *        CLOUDY    45  41  87 E15G23    29.99F
CHARITON *     CLOUDY    46  43  87 NE18      29.93F
DES MOINES     LGT RAIN  48  41  76 E15G25    29.96F
6HR MIN TEMP:  48; 6HR MAX TEMP:  50; 6HR PCP: TRACE;

GRINNELL*      CLOUDY    45  41  87 NE13      30.01F
KNOXVILLE *    CLOUDY    46  43  87 E15       29.96F
MARSHALLTOWN   CLOUDY    46  40  79 E16       30.02S
6HR MIN TEMP:  46; 6HR MAX TEMP:  48;

NEWTON *       CLOUDY    46  45  93 E13G20    30.00F
PELLA *        LGT RAIN  46  43  90 NE7       29.99F
$$

IAZ004>006-015-016-023>025-035-036-300700-
   NORTH CENTRAL IOWA

CITY           SKY/WX    TMP DP  RH WIND       PRES   REMARKS
ALGONA *       CLOUDY    46  41  81 E10       30.06S
CLARION *      CLOUDY    45  43  93 NE10      30.04F
ESTHERVILLE    CLOUDY    41  39  93 NE8       30.05S
6HR MIN TEMP:  40; 6HR MAX TEMP:  48;

FORT DODGE *   CLOUDY    45  37  76 NE12      30.02F
MASON CITY     CLOUDY    46  41  82 E10       30.08S
6HR MIN TEMP:  45; 6HR MAX TEMP:  48;

FOREST CITY *  CLOUDY    45  39  81 E7        30.06F
WEBSTER CITY *   N/A     46  43  87 E15       30.00F
IOWA FALLS *     N/A     46  41  81 E10       30.04F
$$

IAZ007>011-017>019-026>030-037>042-050>054-066-300700-
   NORTHEAST IOWA

CITY           SKY/WX    TMP DP  RH WIND       PRES   REMARKS
CEDAR RAPIDS   CLOUDY    45  42  89 E10       30.04R
6HR MIN TEMP:  45; 6HR MAX TEMP:  49;

CHARLES CITY * PTCLDY    43  43 100 NE6       30.08S
CLINTON *      CLOUDY    46  41  82 E12       30.05F
DECORAH *      PTCLDY    45  39  81 VRB5      30.07F
DUBUQUE        CLOUDY    43  39  86 NE7       30.08F
6HR MIN TEMP:  43; 6HR MAX TEMP:  47;

MONTICELLO *   CLEAR     45  41  87 E7        30.06S
OELWEIN *      MOCLDY    43  43 100 E6        30.08R
WATERLOO       CLOUDY    43  40  89 NE7       30.06S
6HR MIN TEMP:  43; 6HR MAX TEMP:  49;

$$

IAZ064-065-067-068-078-300700-
   EAST CENTRAL IOWA

CITY           SKY/WX    TMP DP  RH WIND       PRES   REMARKS
DAVENPORT      MOCLDY    46  40  79 E9        30.04S
6HR MIN TEMP:  46; 6HR MAX TEMP:  49;

IOWA CITY      CLOUDY    47  41  80 NE10G20   30.04S
6HR MIN TEMP:  47; 6HR MAX TEMP:  50;

MT. PLEASANT * CLOUDY    49  45  87 NE15      29.99S
MUSCATINE *    CLOUDY    48  41  76 E10       30.03S
QUAD CITIES    MOCLDY    48  41  76 NE9       30.02F
6HR MIN TEMP:  48; 6HR MAX TEMP:  50;

$$

IAZ062-063-075>077-085>089-095>099-300700-
   SOUTHEAST IOWA

CITY           SKY/WX    TMP DP  RH WIND       PRES   REMARKS
BURLINGTON     CLOUDY    48  44  86 NE13      29.97F
6HR MIN TEMP:  48; 6HR MAX TEMP:  51;

FAIRFIELD *    CLOUDY    46  43  87 E16       29.98F
FORT MADISON * CLOUDY    48  45  87 NE13      29.97F
KEOKUK *       CLOUDY    48  45  87 E18G29    29.94F
OSKALOOSA *    LGT RAIN  45  43  91 E15       29.99S
OTTUMWA        CLOUDY    46  43  89 E14       29.98F
6HR MIN TEMP:  46; 6HR MAX TEMP:  50; 6HR PCP:  0.02;

WASHINGTON *   CLOUDY    46  45  93 E13       30.02R
$$

ABBREVIATIONS USED IN REMARKS
   TC - TEMPERATURES IN CELSIUS
  WCI - WIND CHILL INDEX
   HX - HEAT INDEX
  VSB - VISIBILITY
$$




USA.gov is the U.S. government's official web portal to all federal, state and local government web resources and services.